DateTimeUTC,F1_A11,F1_S11,BsB_S11,BsG_S11,BsR_S11,BbsB_S11,BbsG_S11,BbsR_S11,BaB_A11,BaG_A11,BaR_A11,Tu_S11,T_S11,Uu_S11,U_S11,P_S11,T1_A11
2021-11-29T13:00:00Z,00000200,21000000,,,,,,,0000.29,0000.40,0000.22,18.9,25.9,,00.0,0629.7,30.9
2021-11-29T13:01:00Z,00000200,21000000,,,,,,,-000.02,-000.22,-000.14,18.9,25.9,,00.0,0629.7,30.9
2021-11-29T13:02:00Z,00000200,21000000,,,,,,,-000.06,0000.06,0000.31,18.9,25.9,,00.0,0629.7,30.9
2021-11-29T13:03:00Z,00000200,61000000,,,,,,,0000.63,0000.60,0000.37,18.9,25.9,,00.0,0629.7,30.9
2021-11-29T13:04:00Z,00000200,41000000,-000.41,0000.02,0000.04,0000.06,0000.26,0000.01,-000.00,0000.10,-000.02,19.1,25.7,,00.0,0630.5,30.9
2021-11-29T13:05:00Z,00000200,01000000,0000.04,0000.13,0000.04,-000.14,0000.27,0000.34,0000.33,0000.40,0000.61,19.1,25.7,,00.0,0630.5,30.9
2021-11-29T13:06:00Z,00000200,01000000,-000.02,-000.08,0000.04,-000.09,0000.03,-000.11,-000.08,-000.18,-000.21,19.2,25.7,,00.0,0630.5,30.9
2021-11-29T13:07:00Z,00000200,01000000,0000.45,0000.22,-000.34,0000.03,0000.44,0000.04,0000.39,0000.37,0000.09,19.2,25.7,,00.0,0630.5,30.9
2021-11-29T13:08:00Z,00000200,01000000,0000.78,0000.36,-000.39,0000.07,-000.09,-000.22,-000.05,-000.15,0000.28,19.3,25.8,,00.0,0630.6,30.9
2021-11-29T13:09:00Z,00000200,01000000,0000.01,0000.27,0000.02,-000.62,-000.11,0000.31,-000.30,-000.01,-000.15,19.3,25.8,,00.0,0630.6,30.9
2021-11-29T13:10:00Z,00000200,01000000,-000.19,0000.08,-000.02,-000.54,-000.32,0000.02,0000.51,-000.29,-000.19,19.4,25.8,,00.0,0630.6,31.0
2021-11-29T13:11:00Z,00000200,01000000,0000.48,-000.06,0000.05,0000.08,0000.06,0000.13,-000.12,0000.47,0000.18,19.4,25.8,,00.0,0630.6,30.9
2021-11-29T13:12:00Z,00000200,01000000,-000.46,0000.26,0000.26,-000.45,0000.18,0000.38,0000.27,0000.17,0000.31,19.5,25.8,,00.0,0630.6,31.0
2021-11-29T13:13:00Z,00000200,01000000,0000.16,0000.09,-000.25,0000.20,0000.24,0000.01,-000.19,-000.07,-000.25,19.5,25.9,,00.0,0630.7,31.0
2021-11-29T13:14:00Z,00000200,01000000,0000.11,0000.07,0000.08,-000.34,0000.13,0000.26,0000.11,-000.15,0000.08,19.5,25.9,,00.0,0630.7,31.0
2021-11-29T13:15:00Z,00000200,01000000,0000.77,-000.10,-000.05,-000.25,0000.15,0000.16,0000.03,0000.34,-000.05,19.5,25.9,,00.0,0630.7,31.0
2021-11-29T13:16:00Z,00000200,01000000,-000.00,0000.12,-000.25,-000.04,0000.18,0000.39,0000.43,-000.09,-000.02,19.5,25.9,,00.0,0630.8,30.9
2021-11-29T13:17:00Z,00000200,01000000,-000.45,0000.46,-000.20,0000.68,-000.08,0000.29,-000.14,-000.06,-000.00,19.5,25.8,,00.0,0630.8,30.9
2021-11-29T13:18:00Z,00000200,01000000,-000.04,0000.05,-000.13,-000.14,0000.48,0000.01,-000.32,-000.16,0000.33,19.5,25.8,,00.0,0630.8,30.9
2021-11-29T13:19:00Z,00000200,01000000,0000.16,0000.03,0000.24,-000.21,0000.38,0000.30,-000.14,0000.34,-000.14,19.5,25.8,,00.0,0630.8,30.9
2021-11-29T13:20:00Z,00000200,01000000,-000.16,0000.48,0000.02,0000.01,-000.03,-000.06,0000.26,-000.12,-000.09,19.5,25.9,,00.0,0630.8,30.9
2021-11-29T13:21:00Z,00000200,01000000,-000.22,-000.06,0000.29,-000.00,0000.11,0000.28,0000.08,0000.27,0000.27,19.5,25.9,,00.0,0630.8,30.9
2021-11-29T13:22:00Z,00000200,01000000,-000.56,0000.09,-000.29,-000.65,0000.14,0000.06,0000.31,0000.00,0000.17,19.6,25.9,,00.0,0630.8,30.9
2021-11-29T13:23:00Z,00000200,01000000,0000.27,-000.10,0000.10,-000.16,0000.07,0000.10,0000.08,0000.25,-000.07,19.6,25.9,,00.0,0630.8,30.9
2021-11-29T13:24:00Z,00000200,01000000,0000.45,0000.07,0000.24,-000.13,-000.08,0000.49,0000.10,-000.01,0000.04,19.6,25.9,,00.0,0630.8,30.9
2021-11-29T13:25:00Z,00000200,01000000,-000.17,0000.12,-000.19,-000.72,0000.11,0000.25,-000.06,-000.09,-000.08,19.7,25.9,,00.0,0630.8,30.9
2021-11-29T13:26:00Z,00000200,01000000,-000.41,0000.10,-000.21,-000.15,-000.08,0000.18,0000.14,-000.09,0000.32,19.7,25.9,,00.0,0630.8,30.9
2021-11-29T13:27:00Z,00000200,01000000,-000.18,-000.07,0000.18,-000.04,0000.25,0000.23,0000.17,-000.03,-000.37,19.6,25.9,,00.0,0630.8,30.9
2021-11-29T13:28:00Z,00000200,01000000,0000.54,0000.01,0000.07,0000.22,0000.06,0000.05,-000.34,-000.27,0000.05,19.5,25.9,,00.0,0630.8,30.9
2021-11-29T13:29:00Z,00000200,01000000,-000.34,0000.19,0000.09,-000.41,0000.34,0000.02,0000.28,0000.25,0000.10,19.4,25.9,,00.0,0630.8,30.9
2021-11-29T13:30:00Z,00000200,01000000,-000.21,-000.16,0000.29,0000.06,-000.12,0000.26,-000.30,0000.19,0000.10,19.4,25.8,,00.0,0630.8,30.9
2021-11-29T13:31:00Z,00000200,01000000,-000.14,0000.28,-000.35,-000.22,0000.07,-000.07,-000.01,0000.09,-000.13,19.3,25.8,,00.0,0630.8,30.9
2021-11-29T13:32:00Z,00000200,01000000,0000.83,0000.06,0000.03,0000.04,0000.23,0000.30,0000.19,-000.01,-000.11,19.3,25.8,,00.0,0630.8,30.9
2021-11-29T13:33:00Z,00000200,01000000,-000.35,0000.13,0000.11,-000.56,-000.36,0000.26,-000.04,0000.11,0000.18,19.3,25.8,,00.0,0630.8,30.9
2021-11-29T13:34:00Z,00000200,01000000,0000.18,0000.11,-000.36,-000.20,0000.17,-000.05,-000.19,-000.24,-000.21,19.3,25.8,,00.0,0630.8,30.9
2021-11-29T13:35:00Z,00000200,01000000,0000.10,0000.15,0000.21,0000.47,0000.56,0000.06,0000.52,0000.21,0000.27,19.3,25.8,,00.0,0630.9,30.9
2021-11-29T13:36:00Z,00000200,01000000,-000.16,0000.20,-000.02,0000.15,0000.02,0000.01,0000.34,0000.20,0000.23,19.3,25.8,,00.0,0630.9,30.9
2021-11-29T13:37:00Z,00000200,01000000,-000.65,0000.35,-000.08,-000.13,0000.11,0000.16,-000.35,0000.03,0000.03,19.3,25.8,,00.0,0630.9,30.9
2021-11-29T13:38:00Z,00000200,01000000,0000.09,0000.01,-000.24,0000.31,0000.29,-000.12,0000.24,-000.18,-000.30,19.3,25.8,,00.0,0630.9,30.9
2021-11-29T13:39:00Z,00000200,01000000,-000.53,0000.12,-000.17,0000.39,-000.14,0000.19,-000.24,-000.10,-000.34,19.4,25.8,,00.0,0631.0,30.9
2021-11-29T13:40:00Z,00000200,01000000,0000.10,0000.19,0000.37,-000.61,-000.12,0000.27,-000.15,-000.13,-000.06,19.4,25.8,,00.0,0631.0,30.9
2021-11-29T13:41:00Z,00000200,01000000,0000.23,0000.29,0000.31,-000.21,-000.02,0000.42,-000.05,0000.27,0000.23,19.3,25.8,,00.0,0631.0,30.9
2021-11-29T13:42:00Z,00000200,01000000,0000.46,0000.10,0000.21,-000.55,-000.02,0000.16,0000.17,-000.18,-000.02,19.3,25.8,,00.0,0631.0,30.9
2021-11-29T13:43:00Z,00000200,01000000,0001.00,0000.20,-000.28,-000.06,0000.06,0000.16,0000.19,0000.04,-000.29,19.2,25.8,,00.0,0631.0,30.9
2021-11-29T13:44:00Z,00000200,01000000,0000.30,0000.06,0000.17,-000.63,-000.05,0000.11,0000.10,0000.04,0000.20,19.1,25.7,,00.0,0631.0,30.9
2021-11-29T13:45:00Z,00000200,01000000,-000.08,0000.21,-000.06,-000.29,0000.16,0000.06,-000.35,-000.05,-000.17,19.0,25.7,,00.0,0631.1,30.8
2021-11-29T13:46:00Z,00000200,01000000,0001.05,0000.25,-000.33,-000.10,-000.06,-000.03,0000.22,-000.07,0000.29,19.0,25.6,,00.0,0631.0,30.8
2021-11-29T13:47:00Z,00000200,01000000,0000.59,0000.58,0000.02,-000.14,0000.16,0000.35,-000.26,-000.21,-000.26,19.0,25.6,,00.0,0631.0,30.9
2021-11-29T13:48:00Z,00000200,01000000,0000.12,0000.23,0000.39,-000.09,-000.02,0000.19,0000.39,0000.48,0000.33,19.0,25.6,,00.0,0630.9,30.9
2021-11-29T13:49:00Z,00000200,01000000,0000.17,-000.12,0000.02,-000.64,0000.35,0000.31,0000.18,0000.22,0000.09,19.0,25.6,,00.0,0630.9,30.9
2021-11-29T13:50:00Z,00000200,01000000,0000.19,0000.50,0000.18,0000.48,0000.71,0000.03,0000.19,0000.02,-000.03,19.0,25.6,,00.0,0630.9,30.9
2021-11-29T13:51:00Z,00000200,01000000,0000.15,0000.19,-000.04,-000.45,0000.26,-000.06,-000.07,0000.38,0000.24,19.0,25.6,,00.0,0630.9,30.9
2021-11-29T13:52:00Z,00000200,01000000,-000.03,-000.02,0000.10,0000.16,0000.24,-000.08,0000.31,0000.00,0000.32,19.1,25.6,,00.0,0630.9,30.9
2021-11-29T13:53:00Z,00000200,01000000,0000.12,0000.57,-000.10,-000.31,0000.08,0000.29,0000.07,-000.08,-000.36,19.1,25.7,,00.0,0631.0,30.9
2021-11-29T13:54:00Z,00000200,01000000,0000.22,0000.16,0000.07,0000.20,0000.23,0000.30,0000.10,-000.23,0000.08,19.2,25.7,,00.0,0631.0,30.9
2021-11-29T13:55:00Z,00000200,01000000,0000.27,0000.24,0000.16,-000.27,0000.17,0000.30,-000.02,0000.70,0000.14,19.2,25.7,,00.0,0631.0,30.9
2021-11-29T13:56:00Z,00000200,01000000,0000.79,0000.30,0000.00,0000.06,-000.08,0000.36,0000.03,-000.37,-000.21,19.2,25.8,,00.0,0631.0,30.9
2021-11-29T13:57:00Z,00000200,41000000,,,,,,,-000.13,-000.13,0000.40,19.2,25.8,,00.0,0631.1,30.9
2021-11-29T13:58:00Z,00000200,61000000,,,,,,,-000.06,-000.12,-000.45,18.8,25.8,,00.0,0630.1,30.9
2021-11-29T13:59:00Z,00000200,21000000,,,,,,,-000.08,-000.03,0000.04,18.8,25.9,,00.0,0630.1,30.9
